Vorticity
10 10 9 8 7 7 5 6 8 8 8 7 9 5 -3 4 2 5 6 17 24 -13 14 -27 -22 27 -1 10 -1 -4 17 1 13 11 3 9 -3 2 0 5 5 5 5
11 10 9 8 8 7 8 7 7 9 9 8 9 5 7 7 6 4 9 -3 -11 0 26 -11 2 -3 13 16 19 27 15 -19 18 11 0 13 1 22 8 -0 2 4 4
11 9 9 9 7 7 6 7 6 6 8 8 8 8 9 2 8 8 16 -2 21 8 4 20 8 22 -5 -2 12 28 -3 1 3 -19 -1 27 -11 11 -7 30 12 6 -0
9 8 8 8 8 7 6 6 6 6 5 8 8 9 7 7 4 8 8 11 5 13 15 -14 36 13 0 11 -16 8 7 32 9 6 2 1 16 1 17 -4 2 5 0
12 11 7 9 8 9 7 7 6 6 7 6 9 9 10 8 5 5 9 9 9 9 7 10 -22 -12 28 6 19 26 -7 -2 -10 4 14 1 10 -9 42 -50 16 -14 24
11 12 11 12 10 10 8 8 8 8 8 8 9 11 14 11 8 4 5 3 11 10 14 10 23 18 -7 5 17 24 15 19 35 23 -3 16 11 9 -12 57 -29 -10 1
17 11 11 13 11 11 10 10 9 9 8 8 11 12 11 13 15 8 6 9 9 8 11 7 5 6 19 8 -3 -10 31 21 -4 5 19 11 15 17 -0 6 2 23 -6
13 13 16 15 13 12 12 12 11 11 11 11 6 5 9 9 8 12 9 7 7 8 10 10 5 9 7 10 14 10 7 19 10 5 -9 24 -7 28 12 -6 18 10 15
12 17 10 10 14 14 11 11 10 11 7 7 7 7 7 10 9 11 12 9 6 8 8 9 7 7 11 11 4 6 20 -1 -20 -1 11 20 15 0 29 29 20 26 20
4 6 15 18 16 14 12 12 13 11 4 2 5 8 12 7 11 10 12 11 10 8 7 8 7 7 7 10 12 12 7 13 10 5 16 5 11 -51 -14 44 -5 23 34
17 11 11 13 10 9 14 13 7 5 6 5 8 11 13 12 5 10 8 9 8 8 8 9 11 10 7 5 6 9 9 10 17 13 7 22 9 -5 -6 12 -32 -20 6
1 5 10 13 11 7 11 15 14 10 8 8 9 9 15 10 14 5 11 11 9 9 6 9 6 5 8 11 11 8 7 7 6 8 9 13 14 15 16 23 37 9 35
12 5 5 3 1 8 16 14 13 13 14 14 14 17 21 16 10 9 8 11 9 10 10 8 8 10 10 12 8 8 11 10 8 8 8 7 10 12 8 10 7 10 16
9 12 16 17 14 12 11 7 12 8 7 8 9 9 9 13 19 19 10 -0 7 10 10 8 6 5 5 4 6 12 9 9 10 12 10 8 6 6 7 6 6 8 11
12 11 7 5 6 10 11 11 8 7 7 7 8 9 6 7 8 10 14 15 12 6 12 11 11 10 7 5 5 5 5 11 9 9 8 9 11 10 7 6 6 5 5
1 2 4 6 6 7 8 8 8 8 10 11 10 8 6 6 6 6 6 9 13 14 13 11 9 8 10 10 9 5 4 4 6 13 8 9 9 6 9 10 9 5 5
5 3 3 2 2 1 2 3 3 4 6 8 7 7 8 6 4 5 6 6 7 7 6 7 9 14 15 14 11 9 9 5 5 4 6 10 8 8 10 9 9 10 9
19 19 20 19 13 8 8 8 7 7 7 8 7 6 8 8 8 6 7 8 8 6 6 7 7 6 5 6 12 16 14 12 11 9 5 4 5 9 9 8 9 10 11
12 8 7 9 14 18 19 18 18 15 11 11 9 8 8 8 7 8 9 7 8 9 11 10 8 5 6 8 9 7 6 9 16 14 10 9 9 5 3 6 11 9 9
18 20 22 22 20 16 13 11 11 13 14 16 17 16 16 16 13 13 14 15 16 15 14 13 12 11 11 11 9 5 4 8 9 12 11 14 14 10 9 9 7 6 5
8 8 9 9 11 13 15 18 21 22 22 22 21 20 20 20 20 20 19 19 19 19 19 18 17 16 14 13 11 11 12 11 7 4 3 3 7 13 16 16 13 10 10
8 8 9 10 10 10 9 9 9 9 10 11 13 16 15 15 15 15 14 13 13 12 12 12 13 14 16 17 16 14 13 10 8 9 8 9 8 6 3 3 5 9 14
8 8 8 8 9 9 8 9 11 11 11 10 10 8 8 10 11 12 12 11 10 9 10 10 12 14 14 15 16 17 17 17 14 10 8 9 9 6 6 7 8 8 8
12 12 12 12 12 11 11 13 16 13 10 8 9 12 12 10 8 7 7 9 10 9 9 9 8 9 12 14 15 16 20 23 24 24 23 18 14 11 10 10 9 8 8
12 12 12 12 12 12 11 11 12 14 15 14 15 14 8 10 12 11 10 8 9 8 8 9 9 9 11 11 11 10 11 13 15 19 22 27 29 29 27 23 18 14 13
9 10 10 10 11 10 11 12 13 14 12 13 15 14 13 17 10 10 13 12 12 10 9 10 9 10 9 12 11 10 9 9 8 8 11 12 13 16 17 21 27 30 29
Height
5636 5643 5650 5657 5663 5669 5675 5681 5687 5692 5698 5704 5707 5710 5714 5718 5722 5728 5732 5737 5742 5746 5752 5755 5764 5771 5773 5775 5779 5784 5790 5795 5799 5803 5808 5811 5813 5816 5820 5824 5827 5830 5832
5623 5629 5636 5643 5650 5656 5662 5668 5674 5680 5685 5690 5695 5700 5704 5707 5711 5717 5720 5727 5730 5734 5737 5745 5753 5760 5764 5769 5771 5774 5778 5784 5787 5792 5797 5800 5802 5804 5808 5813 5817 5821 5824
5610 5616 5623 5630 5637 5642 5648 5654 5661 5667 5673 5678 5683 5688 5693 5697 5702 5706 5711 5716 5720 5723 5728 5731 5739 5746 5753 5758 5763 5766 5770 5773 5778 5782 5788 5789 5791 5796 5797 5801 5805 5810 5813
5596 5603 5610 5617 5624 5630 5635 5641 5648 5655 5661 5666 5672 5677 5681 5686 5691 5695 5700 5705 5709 5712 5717 5721 5726 5731 5738 5745 5750 5756 5760 5763 5767 5771 5776 5779 5783 5787 5790 5789 5796 5800 5801
5583 5590 5597 5603 5610 5617 5623 5629 5636 5642 5649 5655 5660 5666 5671 5674 5678 5683 5689 5694 5699 5702 5706 5710 5715 5719 5723 5731 5737 5742 5747 5751 5755 5759 5762 5766 5770 5773 5779 5782 5787 5787 5789
5570 5577 5584 5590 5597 5605 5611 5618 5624 5630 5636 5642 5648 5654 5658 5663 5666 5670 5677 5682 5688 5693 5695 5701 5704 5708 5712 5718 5725 5729 5733 5739 5743 5748 5751 5754 5759 5762 5765 5769 5770 5773 5777
5560 5566 5572 5579 5585 5592 5599 5606 5612 5617 5623 5629 5634 5639 5645 5650 5656 5659 5663 5669 5674 5680 5684 5689 5694 5700 5703 5706 5711 5718 5721 5726 5730 5734 5738 5741 5745 5750 5752 5756 5758 5762 5764
5549 5554 5560 5567 5573 5579 5586 5592 5598 5604 5610 5617 5622 5627 5632 5637 5641 5647 5652 5656 5661 5666 5672 5676 5681 5685 5691 5695 5699 5704 5711 5713 5717 5720 5725 5730 5733 5735 5739 5742 5744 5749 5750
5539 5544 5550 5555 5561 5567 5573 5579 5586 5592 5598 5603 5609 5615 5620 5626 5631 5635 5639 5643 5648 5653 5658 5663 5666 5672 5678 5683 5688 5694 5696 5700 5703 5707 5712 5716 5718 5722 5726 5729 5733 5733 5736
5530 5536 5541 5546 5551 5556 5562 5568 5573 5580 5586 5591 5596 5601 5607 5612 5617 5622 5627 5631 5635 5639 5644 5650 5654 5658 5664 5669 5674 5680 5685 5688 5692 5697 5700 5703 5706 5709 5714 5717 5720 5725 5727
5521 5526 5531 5536 5540 5545 5551 5556 5562 5567 5573 5578 5583 5588 5593 5598 5603 5608 5613 5618 5623 5628 5632 5636 5641 5646 5650 5654 5659 5664 5669 5674 5678 5683 5687 5690 5694 5696 5698 5704 5707 5710 5716
5511 5516 5520 5525 5529 5534 5539 5544 5549 5554 5559 5564 5569 5574 5578 5583 5588 5593 5598 5604 5609 5613 5617 5622 5626 5631 5636 5640 5645 5650 5654 5658 5662 5667 5671 5674 5678 5683 5685 5685 5691 5692 5697
5501 5505 5510 5514 5518 5523 5528 5532 5537 5541 5546 5550 5555 5559 5564 5569 5574 5579 5583 5589 5594 5599 5603 5608 5612 5617 5621 5626 5631 5636 5640 5644 5648 5652 5656 5659 5663 5666 5670 5673 5675 5678 5680
5490 5494 5499 5503 5507 5511 5516 5520 5525 5529 5533 5538 5542 5546 5550 5555 5559 5564 5569 5573 5578 5584 5589 5594 5598 5603 5608 5612 5616 5620 5624 5629 5632 5637 5641 5644 5648 5651 5654 5657 5660 5664 5667
5480 5484 5488 5492 5495 5500 5503 5507 5512 5516 5521 5525 5529 5532 5536 5541 5545 5549 5554 5558 5563 5568 5573 5578 5583 5588 5592 5596 5600 5604 5608 5611 5615 5620 5623 5628 5631 5635 5639 5642 5645 5648 5651
5470 5473 5476 5480 5483 5487 5490 5494 5498 5502 5507 5511 5515 5518 5522 5526 5530 5534 5539 5544 5548 5552 5557 5562 5566 5570 5575 5580 5584 5588 5591 5595 5599 5602 5606 5610 5614 5617 5621 5626 5629 5631 5634
5456 5460 5463 5466 5470 5473 5476 5480 5483 5487 5491 5495 5500 5503 5507 5511 5514 5518 5523 5528 5532 5537 5541 5545 5549 5552 5557 5562 5566 5570 5574 5578 5581 5585 5588 5592 5596 5599 5604 5608 5611 5614 5617
5442 5445 5448 5451 5454 5458 5461 5464 5467 5471 5475 5479 5483 5486 5490 5494 5498 5502 5506 5510 5515 5520 5524 5529 5533 5536 5540 5544 5548 5552 5557 5561 5564 5567 5571 5574 5578 5581 5585 5589 5592 5595 5598
5430 5432 5434 5436 5439 5442 5445 5447 5451 5453 5457 5461 5464 5468 5472 5476 5479 5484 5488 5492 5497 5502 5506 5510 5515 5519 5522 5526 5530 5535 5539 5542 5545 5549 5553 5557 5561 5564 5569 5571 5573 5576 5579
5417 5419 5420 5422 5424 5427 5429 5432 5434 5437 5440 5443 5446 5450 5454 5458 5461 5466 5470 5474 5479 5482 5487 5491 5495 5499 5502 5507 5511 5516 5520 5525 5526 5530 5534 5538 5541 5545 5549 5552 5554 5556 5559
5407 5408 5409 5410 5411 5413 5415 5417 5419 5422 5424 5427 5430 5433 5437 5440 5444 5447 5451 5456 5460 5464 5467 5472 5475 5479 5482 5486 5490 5495 5501 5503 5507 5512 5514 5517 5522 5526 5529 5533 5534 5536 5540
5395 5396 5397 5398 5399 5401 5402 5403 5405 5409 5411 5413 5415 5418 5421 5424 5428 5431 5435 5439 5443 5446 5449 5454 5457 5460 5463 5467 5471 5476 5481 5484 5489 5492 5493 5498 5503 5506 5510 5513 5514 5517 5521
5382 5382 5383 5384 5385 5386 5388 5389 5391 5394 5395 5398 5401 5404 5406 5409 5413 5416 5419 5423 5427 5430 5434 5438 5440 5442 5446 5450 5453 5456 5460 5464 5470 5471 5474 5478 5483 5486 5489 5490 5493 5496 5499
5367 5367 5368 5369 5369 5371 5373 5374 5376 5379 5380 5382 5384 5388 5391 5394 5397 5400 5404 5407 5410 5414 5417 5421 5424 5426 5429 5431 5435 5440 5442 5445 5448 5451 5452 5457 5462 5466 5467 5468 5472 5475 5478
5352 5353 5354 5354 5355 5357 5357 5359 5361 5362 5363 5365 5368 5372 5374 5377 5381 5384 5387 5390 5393 5398 5401 5404 5407 5410 5413 5415 5420 5423 5426 5428 5430 5433 5436 5439 5442 5444 5444 5446 5451 5454 5456
5336 5336 5337 5339 5339 5341 5342 5344 5346 5347 5348 5350 5352 5355 5357 5360 5364 5367 5369 5373 5376 5380 5383 5386 5390 5394 5397 5399 5403 5407 5410 5412 5414 5420 5422 5423 5425 5426 5425 5428 5432 5435 5437